Location: Unspecified
(0.0000°N, 0.0000°E)
Time: 16:29:31
(UTC+02:00)

JASON 3 - Pass Details

Date: 02 October 2021
Orbit: 1332 x 1343 km, 66.0° (Epoch: 27 October)

Event Time Altitude Azimuth Distance (km) Brightness Sun altitude
Rises 21:48:56 0° 296° (WNW) 4,346 ? -29.9°
Reaches altitude 10° 21:54:38 10° 265° (W) 3,374 ? -31.3°
Maximum altitude 21:56:53 11° 248° (WSW) 3,275 ? -31.8°
Drops below altitude 10° 21:59:08 10° 232° (SW) 3,374 ? -32.4°
Sets 22:04:54 0° 200° (SSW) 4,346 ? -33.8°
